Regional Weather Roundup
Issued by NWS

Home | Current Version | Previous Version | Graphics & Text | Print | Product List | Glossary On
Versions: 1 2 3 4 5 6 7 8 9 10 11 12 13 14 15 16 17 18 19 20 21 22 23 24 25 26 27 28 29 30 31 32 33 34 35 36 37 38 39 40 41 42 43 44 45 46 47 48 49 50
000
ASUS45 KABQ 220001
RWRNM
WEATHER ROUNDUP FOR NEW MEXICO
NATIONAL WEATHER SERVICE ALBUQUERQUE NM
600 PM MDT SUN SEP 21 2014

NOTE: "FAIR" MEANS FEW OR NO CLOUDS BELOW 12,000 FEET AGL WITH NO
       SIGNIFICANT WEATHER OR OBSTRUCTIONS TO VISION.

      THIS PRODUCT IS RELEASED AS TWO VERSIONS.  ONE VERSION NEAR
      THE TOP OF THE HOUR CONTAINING PRELIMINARY DATA FROM ALBUQUERQUE
      AND OTHER STATIONS.  A FINAL VERSION WITH ADDITIONAL DATA IS
      ISSUED ABOUT 10 MINUTES AFTER THE HOUR.

NMZ501-503-504-510>518-220100-
NORTHWEST PLATEAU/NORTHCENTRAL MOUNTAINS

CITY           SKY/WX    TMP DP  RH WIND       PRES   REMARKS
FARMINGTON     MOSUNNY   78  52  40 CALM      30.17S
6HR MIN TEMP:  72; 6HR MAX TEMP:  84; 6HR PCP:  0.02;

LOS ALAMOS     MOSUNNY   72  44  37 S14G22    30.35R
SANTA FE       MOSUNNY   75  47  36 SE17G26   30.28R
6HR MIN TEMP:  75; 6HR MAX TEMP:  83;

TAOS           PTSUNNY   72  43  35 SE15      30.34R
ANGEL FIRE     FAIR      63  44  48 S10       30.47R

$$
NMZ402-403-502-505>509-220100-
WESTCENTRAL MOUNTAINS/SOUTHWEST MOUNTAINS

CITY           SKY/WX    TMP DP  RH WIND       PRES   REMARKS
GALLUP         TSTM      64  56  75 SW13G23   30.27R
6HR MIN TEMP:  64; 6HR MAX TEMP:  80; 6HR PCP:  0.01;

GRANTS         CLOUDY    66  57  72 S10       30.29F
SILVER CITY    CLOUDY    73  57  56 NE12      30.20S

$$
NMZ407-409-411-412-220100-
SOUTHERN DESERTS

CITY           SKY/WX    TMP DP  RH WIND       PRES   REMARKS
LORDSBURG      FAIR      79  61  53 MISG      30.10S
DEMING         CLOUDY    82  61  48 VRB3      30.10S
6HR MIN TEMP:  79; 6HR MAX TEMP:  86;

LAS CRUCES     PTSUNNY   82  61  47 E6        30.12S
HOLLOMAN AFB   MOSUNNY   80  61  51 E6        30.09S
ALAMOGORDO     MOSUNNY   77  64  65 CALM      30.11S
T OR C         CLOUDY    74  63  68 N17       30.16R
6HR MIN TEMP:  74; 6HR MAX TEMP:  82;


$$
NMZ519>523-220100-
CENTRAL VALLEYS/CENTRAL HIGHLANDS

CITY           SKY/WX    TMP DP  RH WIND       PRES   REMARKS
ALBUQUERQUE    CLOUDY    76  54  46 SE18      30.23S
6HR MIN TEMP:  76; 6HR MAX TEMP:  82;

DOUBLE EAGLE   PTSUNNY   72  55  56 SE16      30.27R
CLINES CORNERS PTSUNNY   66  53  63 SE17      30.36R
6HR MIN TEMP:  65; 6HR MAX TEMP:  71;

BELEN          FAIR      76  54  46 S12       30.23R
6HR MIN TEMP:  76; 6HR MAX TEMP:  81;

SOCORRO        CLOUDY    73  63  71 N5        30.20S
6HR MIN TEMP:  66; 6HR MAX TEMP:  83; 6HR PCP:  0.40;


$$
NMZ524>526-539-540-220100-
SOUTHCENTRAL MOUNTAINS

CITY           SKY/WX    TMP DP  RH WIND       PRES   REMARKS
RUIDOSO        NOT AVBL

$$
NMZ527>531-220100-
NORTHEAST HIGHLANDS/NORTHEAST PLAINS

CITY           SKY/WX    TMP DP  RH WIND       PRES   REMARKS
LAS VEGAS      PTSUNNY   69  51  52 E17       30.37S
6HR MIN TEMP:  68; 6HR MAX TEMP:  75;

RATON          TSTM      65  54  67 E9        30.34S
6HR MIN TEMP:  65; 6HR MAX TEMP:  74; 6HR PCP:  0.01;

CLAYTON        MOCLDY    72  53  51 E13       30.30S
6HR MIN TEMP:  72; 6HR MAX TEMP:  76;


$$
NMZ532>537-220100-
EASTCENTRAL PLAINS

CITY           SKY/WX    TMP DP  RH WIND       PRES   REMARKS
TUCUMCARI      LGT RAIN  68  58  70 S20       30.22R
6HR MIN TEMP:  68; 6HR MAX TEMP:  85; 6HR PCP:  0.01;

CANNON AFB     NOT AVBL
CLOVIS AIRPORT   N/A     68  63  83 S12       30.26R

$$
NMZ028-029-538-220100-
SOUTHEAST PLAINS

CITY           SKY/WX    TMP DP  RH WIND       PRES   REMARKS
ROSWELL        CLOUDY    71  66  84 SE12      30.19R
6HR MIN TEMP:  67; 6HR MAX TEMP:  73; 6HR PCP:  0.06;

CARLSBAD       RAIN      70  32  24 E16       30.13R
6HR MIN TEMP:  70; 6HR MAX TEMP:  78;

HOBBS          CLOUDY    68  68 100 E9        30.20R


$$



USA.gov is the U.S. government's official web portal to all federal, state and local government web resources and services.